N180GS LFBL-LESU

Flight info

Callsign N180GS
Flight time 1h 33m
Altitude 11000
Route MAKOX 4A MAKOX TOU RUTIP USKAR SU17S RNP03
Aircraft BE36/L-VGD/C

Departure

Time 2026-04-29 04:30
Airport Limoges Airport (LFBL)

Arrival

Time 2026-04-29 06:03
Airport Pirineus - la Seu d'Urgel Airport (LESU)
Time Latitude Longitude Altitude Speed Heading
2026-04-29 04:08 45.86030 1.17602 1300 ft 0 kts 28°
2026-04-29 04:21 45.86033 1.17605 1300 ft 2 kts 45°
2026-04-29 04:21 45.86009 1.17622 1300 ft 6 kts 164°
2026-04-29 04:21 45.85945 1.17629 1300 ft 16 kts 207°
2026-04-29 04:22 45.85826 1.17526 1298 ft 25 kts 214°
2026-04-29 04:22 45.85680 1.17387 1297 ft 23 kts 212°
2026-04-29 04:22 45.85545 1.17274 1295 ft 25 kts 200°
2026-04-29 04:22 45.85440 1.17242 1294 ft 6 kts 174°
2026-04-29 04:23 45.85423 1.17255 1294 ft 0 kts 137°
2026-04-29 04:27 45.85422 1.17256 1294 ft 0 kts 138°
2026-04-29 04:28 45.85406 1.17278 1294 ft 8 kts 130°
2026-04-29 04:28 45.85396 1.17383 1295 ft 14 kts 58°
2026-04-29 04:29 45.85557 1.17544 1297 ft 54 kts 34°
2026-04-29 04:29 45.86013 1.17963 1349 ft 93 kts 34°
2026-04-29 04:29 45.86590 1.18501 1531 ft 101 kts 36°
2026-04-29 04:29 45.87194 1.19059 1744 ft 107 kts 34°
2026-04-29 04:30 45.87890 1.19580 1930 ft 125 kts
2026-04-29 04:30 45.88728 1.19140 2133 ft 139 kts 315°
2026-04-29 04:30 45.88559 1.16590 2528 ft 144 kts 230°
2026-04-29 04:31 45.87956 1.15421 2723 ft 147 kts 231°
2026-04-29 04:31 45.87353 1.14217 2911 ft 150 kts 232°
2026-04-29 04:31 45.86742 1.12988 3095 ft 152 kts 232°
2026-04-29 04:31 45.86127 1.11745 3278 ft 153 kts 232°
2026-04-29 04:32 45.85511 1.10496 3450 ft 154 kts 232°
2026-04-29 04:32 45.84894 1.09245 3627 ft 154 kts 232°
2026-04-29 04:32 45.84276 1.07994 3802 ft 153 kts 232°
2026-04-29 04:32 45.83661 1.06748 3978 ft 153 kts 232°
2026-04-29 04:33 45.83043 1.05498 4152 ft 153 kts 233°
2026-04-29 04:33 45.82427 1.04257 4332 ft 152 kts 231°
2026-04-29 04:33 45.81617 1.03332 4508 ft 149 kts 202°
2026-04-29 04:33 45.80620 1.03077 4683 ft 148 kts 176°
2026-04-29 04:34 45.79625 1.03443 4867 ft 148 kts 163°
2026-04-29 04:34 45.78642 1.03879 4996 ft 150 kts 163°
2026-04-29 04:34 45.77611 1.04335 5001 ft 159 kts 163°
2026-04-29 04:34 45.76539 1.04814 5011 ft 163 kts 163°
2026-04-29 04:35 45.75442 1.05305 5009 ft 167 kts 162°
2026-04-29 04:35 45.74324 1.05804 5012 ft 168 kts 162°
2026-04-29 04:35 45.73204 1.06305 5010 ft 169 kts 162°
2026-04-29 04:35 45.72078 1.06806 5011 ft 170 kts 162°
2026-04-29 04:36 45.70946 1.07312 5008 ft 170 kts 162°
2026-04-29 04:36 45.69821 1.07812 5078 ft 166 kts 162°
2026-04-29 04:36 45.68761 1.08286 5287 ft 157 kts 162°
2026-04-29 04:36 45.67748 1.08737 5529 ft 149 kts 162°
2026-04-29 04:37 45.66781 1.09167 5770 ft 142 kts 162°
2026-04-29 04:37 45.65853 1.09580 6022 ft 138 kts 162°
2026-04-29 04:37 45.64949 1.09982 6273 ft 135 kts 163°
2026-04-29 04:37 45.64067 1.10374 6505 ft 131 kts 162°
2026-04-29 04:38 45.63189 1.10763 6671 ft 133 kts 163°
2026-04-29 04:38 45.62588 1.11031 6781 ft 134 kts 163°
2026-04-29 04:38 45.61701 1.11424 6950 ft 135 kts 163°
2026-04-29 04:38 45.60802 1.11823 7118 ft 136 kts 163°
2026-04-29 04:39 45.59900 1.12223 7291 ft 136 kts 163°
2026-04-29 04:39 45.58998 1.12624 7463 ft 135 kts 163°
2026-04-29 04:39 45.58095 1.13024 7635 ft 135 kts 163°
2026-04-29 04:39 45.57196 1.13423 7811 ft 135 kts 163°
2026-04-29 04:40 45.56301 1.13820 7982 ft 135 kts 163°
2026-04-29 04:40 45.55409 1.14215 8157 ft 134 kts 163°
2026-04-29 04:40 45.54521 1.14608 8332 ft 133 kts 163°
2026-04-29 04:40 45.53648 1.14995 8505 ft 133 kts 163°
2026-04-29 04:41 45.52769 1.15384 8681 ft 132 kts 164°
2026-04-29 04:41 45.51892 1.15764 8858 ft 131 kts 164°
2026-04-29 04:41 45.51014 1.16145 9001 ft 134 kts 164°
2026-04-29 04:41 45.50086 1.16544 9008 ft 144 kts 164°
2026-04-29 04:42 45.49106 1.16967 8996 ft 150 kts 164°
2026-04-29 04:42 45.48090 1.17408 8995 ft 155 kts 164°
2026-04-29 04:42 45.47047 1.17860 8994 ft 159 kts 164°
2026-04-29 04:42 45.45984 1.18320 8995 ft 161 kts 164°
2026-04-29 04:43 45.44907 1.18786 8996 ft 162 kts 164°
2026-04-29 04:43 45.43825 1.19254 8995 ft 163 kts 163°
2026-04-29 04:43 45.42749 1.19720 8996 ft 164 kts 164°
2026-04-29 04:43 45.41654 1.20192 8995 ft 165 kts 164°
2026-04-29 04:44 45.40555 1.20667 8994 ft 165 kts 164°
2026-04-29 04:44 45.39451 1.21144 8993 ft 165 kts 164°
2026-04-29 04:44 45.38347 1.21620 8992 ft 166 kts 164°
2026-04-29 04:44 45.37239 1.22098 8996 ft 166 kts 163°
2026-04-29 04:45 45.36130 1.22576 8986 ft 166 kts 163°
2026-04-29 04:45 45.35024 1.23053 8992 ft 166 kts 163°
2026-04-29 04:45 45.33916 1.23531 8986 ft 166 kts 163°
2026-04-29 04:45 45.32800 1.23848 8986 ft 166 kts 178°
2026-04-29 04:46 45.31643 1.23876 8991 ft 166 kts 178°
2026-04-29 04:46 45.30486 1.23928 8986 ft 167 kts 178°
2026-04-29 04:46 45.29324 1.23982 8985 ft 167 kts 178°
2026-04-29 04:46 45.28165 1.24034 8985 ft 167 kts 178°
2026-04-29 04:47 45.27002 1.24086 8981 ft 167 kts 178°
2026-04-29 04:47 45.25841 1.24138 8983 ft 167 kts 178°
2026-04-29 04:47 45.24680 1.24189 8979 ft 167 kts 178°
2026-04-29 04:47 45.23522 1.24241 8979 ft 167 kts 178°
2026-04-29 04:48 45.22361 1.24293 8978 ft 167 kts 178°
2026-04-29 04:48 45.21198 1.24344 8976 ft 167 kts 178°
2026-04-29 04:48 45.20034 1.24397 8975 ft 167 kts 178°
2026-04-29 04:48 45.18888 1.24447 8974 ft 167 kts 178°
2026-04-29 04:49 45.17727 1.24499 8976 ft 167 kts 178°
2026-04-29 04:49 45.16560 1.24550 8975 ft 168 kts 178°
2026-04-29 04:49 45.15393 1.24603 8977 ft 168 kts 178°
2026-04-29 04:49 45.14227 1.24654 8972 ft 168 kts 178°
2026-04-29 04:50 45.13054 1.24706 8970 ft 168 kts 178°
2026-04-29 04:50 45.11884 1.24758 8969 ft 168 kts 178°
2026-04-29 04:50 45.10716 1.24810 8969 ft 168 kts 178°
2026-04-29 04:50 45.09547 1.24862 8974 ft 168 kts 178°
2026-04-29 04:51 45.08384 1.24913 8968 ft 168 kts 178°
2026-04-29 04:51 45.07216 1.24965 8968 ft 168 kts 178°
2026-04-29 04:51 45.06048 1.25017 8967 ft 168 kts 178°
2026-04-29 04:51 45.04881 1.25068 8967 ft 168 kts 178°
2026-04-29 04:52 45.03713 1.25121 8971 ft 168 kts 178°
2026-04-29 04:52 45.02560 1.25171 8968 ft 168 kts 178°
2026-04-29 04:52 45.01394 1.25222 8969 ft 168 kts 178°
2026-04-29 04:52 45.00230 1.25275 8968 ft 167 kts 178°
2026-04-29 04:53 44.99064 1.25326 8980 ft 167 kts 178°
2026-04-29 04:53 44.97898 1.25377 8970 ft 168 kts 178°
2026-04-29 04:53 44.96731 1.25429 8970 ft 168 kts 178°
2026-04-29 04:53 44.95562 1.25480 8970 ft 168 kts 178°
2026-04-29 04:54 44.94393 1.25532 8973 ft 168 kts 178°
2026-04-29 04:54 44.93220 1.25583 8973 ft 168 kts 178°
2026-04-29 04:54 44.92049 1.25635 8974 ft 169 kts 178°
2026-04-29 04:54 44.90877 1.25687 8973 ft 168 kts 178°
2026-04-29 04:55 44.89704 1.25738 8976 ft 169 kts 178°
2026-04-29 04:55 44.88545 1.25789 8976 ft 169 kts 178°
2026-04-29 04:55 44.87373 1.25841 8976 ft 169 kts 178°
2026-04-29 04:55 44.86198 1.25892 8977 ft 169 kts 178°
2026-04-29 04:56 44.85023 1.25945 8974 ft 169 kts 178°
2026-04-29 04:56 44.83846 1.25996 8972 ft 169 kts 178°
2026-04-29 04:56 44.82671 1.26047 8971 ft 169 kts 178°
2026-04-29 04:56 44.81497 1.26099 8971 ft 168 kts 178°
2026-04-29 04:57 44.80323 1.26151 8967 ft 168 kts 178°
2026-04-29 04:57 44.79153 1.26202 8969 ft 168 kts 178°
2026-04-29 04:57 44.77982 1.26253 8967 ft 168 kts 178°
2026-04-29 04:57 44.76811 1.26305 8968 ft 168 kts 178°
2026-04-29 04:58 44.75638 1.26355 8971 ft 169 kts 178°
2026-04-29 04:58 44.74466 1.26407 8971 ft 168 kts 178°
2026-04-29 04:58 44.73294 1.26459 8971 ft 169 kts 178°
2026-04-29 04:58 44.72120 1.26509 8971 ft 169 kts 178°
2026-04-29 04:59 44.70947 1.26562 8971 ft 168 kts 178°
2026-04-29 04:59 44.69777 1.26613 8971 ft 168 kts 178°
2026-04-29 04:59 44.68617 1.26663 8971 ft 169 kts 178°
2026-04-29 04:59 44.67444 1.26714 8968 ft 169 kts 178°
2026-04-29 05:00 44.66272 1.26765 8969 ft 168 kts 178°
2026-04-29 05:00 44.65096 1.26816 8969 ft 169 kts 178°
2026-04-29 05:00 44.63924 1.26867 8973 ft 168 kts 178°
2026-04-29 05:00 44.62751 1.26919 8968 ft 168 kts 178°
2026-04-29 05:01 44.61583 1.26971 8969 ft 168 kts 178°
2026-04-29 05:01 44.60415 1.27021 8966 ft 168 kts 178°
2026-04-29 05:01 44.59244 1.27072 8966 ft 168 kts 178°
2026-04-29 05:01 44.58071 1.27123 8966 ft 169 kts 178°
2026-04-29 05:02 44.56897 1.27174 8967 ft 169 kts 178°
2026-04-29 05:02 44.55721 1.27225 8966 ft 169 kts 178°
2026-04-29 05:02 44.54546 1.27277 8966 ft 169 kts 178°
2026-04-29 05:02 44.53369 1.27327 8967 ft 169 kts 178°
2026-04-29 05:03 44.52191 1.27379 8965 ft 169 kts 178°
2026-04-29 05:03 44.51013 1.27430 8971 ft 170 kts 178°
2026-04-29 05:03 44.49846 1.27480 8965 ft 170 kts 178°
2026-04-29 05:03 44.48664 1.27531 8966 ft 170 kts 178°
2026-04-29 05:04 44.47482 1.27583 8969 ft 170 kts 178°
2026-04-29 05:04 44.46300 1.27635 8967 ft 170 kts 178°
2026-04-29 05:04 44.45123 1.27685 8973 ft 169 kts 178°
2026-04-29 05:04 44.43942 1.27737 8966 ft 170 kts 178°
2026-04-29 05:05 44.42759 1.27788 8965 ft 170 kts 178°
2026-04-29 05:05 44.41578 1.27838 8965 ft 170 kts 178°
2026-04-29 05:05 44.40399 1.27890 8966 ft 170 kts 177°
2026-04-29 05:05 44.39220 1.27941 8964 ft 170 kts 177°
2026-04-29 05:06 44.38038 1.27992 8962 ft 169 kts 177°
2026-04-29 05:06 44.36860 1.28043 8958 ft 169 kts 177°
2026-04-29 05:06 44.35681 1.28094 8959 ft 169 kts 177°
2026-04-29 05:06 44.34503 1.28145 8959 ft 169 kts 177°
2026-04-29 05:07 44.33320 1.28196 8962 ft 170 kts 177°
2026-04-29 05:07 44.32139 1.28247 8962 ft 170 kts 177°
2026-04-29 05:07 44.30958 1.28298 8962 ft 170 kts 177°
2026-04-29 05:07 44.29792 1.28349 8962 ft 169 kts 177°
2026-04-29 05:08 44.28613 1.28398 8962 ft 169 kts 177°
2026-04-29 05:08 44.27433 1.28450 8963 ft 170 kts 177°
2026-04-29 05:08 44.26251 1.28501 8962 ft 170 kts 177°
2026-04-29 05:08 44.25069 1.28552 8962 ft 169 kts 177°
2026-04-29 05:09 44.23891 1.28602 8960 ft 169 kts 177°
2026-04-29 05:09 44.22709 1.28653 8959 ft 170 kts 177°
2026-04-29 05:09 44.21545 1.28704 8958 ft 170 kts 177°
2026-04-29 05:09 44.20362 1.28754 8957 ft 170 kts 177°
2026-04-29 05:10 44.19179 1.28805 8963 ft 170 kts 177°
2026-04-29 05:10 44.17995 1.28856 8963 ft 170 kts 177°
2026-04-29 05:10 44.16811 1.28906 8963 ft 170 kts 177°
2026-04-29 05:10 44.15625 1.28957 8962 ft 170 kts 177°
2026-04-29 05:11 44.14442 1.29009 8960 ft 170 kts 177°
2026-04-29 05:11 44.13261 1.29059 8959 ft 170 kts 177°
2026-04-29 05:11 44.12078 1.29109 8960 ft 170 kts 177°
2026-04-29 05:11 44.10897 1.29160 8959 ft 170 kts 177°
2026-04-29 05:12 44.09715 1.29211 8958 ft 170 kts 177°
2026-04-29 05:12 44.08532 1.29261 8958 ft 170 kts 177°
2026-04-29 05:12 44.07346 1.29312 8958 ft 170 kts 177°
2026-04-29 05:12 44.06165 1.29363 8957 ft 170 kts 177°
2026-04-29 05:13 44.04998 1.29412 8957 ft 170 kts 177°
2026-04-29 05:13 44.03814 1.29464 8957 ft 170 kts 177°
2026-04-29 05:13 44.02632 1.29514 8957 ft 170 kts 177°
2026-04-29 05:13 44.01446 1.29564 8957 ft 170 kts 178°
2026-04-29 05:14 44.00266 1.29614 8957 ft 170 kts 178°
2026-04-29 05:14 43.99082 1.29666 8957 ft 170 kts 178°
2026-04-29 05:14 43.97898 1.29716 8956 ft 170 kts 178°
2026-04-29 05:14 43.96720 1.29765 8955 ft 170 kts 178°
2026-04-29 05:15 43.95536 1.29817 8950 ft 170 kts 178°
2026-04-29 05:15 43.94368 1.29866 8950 ft 170 kts 178°
2026-04-29 05:15 43.93186 1.29916 8948 ft 170 kts 178°
2026-04-29 05:15 43.92005 1.29967 8948 ft 170 kts 178°
2026-04-29 05:16 43.90824 1.30017 8950 ft 170 kts 178°
2026-04-29 05:16 43.89640 1.30067 8947 ft 170 kts 178°
2026-04-29 05:16 43.88460 1.30117 8947 ft 170 kts 178°
2026-04-29 05:16 43.87276 1.30168 8946 ft 170 kts 178°
2026-04-29 05:17 43.86093 1.30218 8945 ft 170 kts 178°
2026-04-29 05:17 43.84912 1.30269 8945 ft 170 kts 178°
2026-04-29 05:17 43.83727 1.30318 8944 ft 170 kts 178°
2026-04-29 05:17 43.82544 1.30369 8943 ft 170 kts 178°
2026-04-29 05:18 43.81365 1.30419 8941 ft 170 kts 178°
2026-04-29 05:18 43.80186 1.30469 8940 ft 169 kts 178°
2026-04-29 05:18 43.79012 1.30519 8940 ft 169 kts 178°
2026-04-29 05:18 43.77838 1.30568 8939 ft 168 kts 178°
2026-04-29 05:19 43.76670 1.30618 8941 ft 168 kts 178°
2026-04-29 05:19 43.75504 1.30667 8940 ft 168 kts 178°
2026-04-29 05:19 43.74337 1.30716 8939 ft 168 kts 178°
2026-04-29 05:19 43.73171 1.30766 8937 ft 167 kts 178°
2026-04-29 05:20 43.72006 1.30815 8935 ft 168 kts 178°
2026-04-29 05:20 43.70838 1.30865 8934 ft 168 kts 178°
2026-04-29 05:20 43.69664 1.30914 8934 ft 168 kts 178°
2026-04-29 05:20 43.68495 1.30964 8934 ft 169 kts 178°
2026-04-29 05:21 43.67336 1.31076 8933 ft 169 kts 174°
2026-04-29 05:21 43.66160 1.31200 8933 ft 169 kts 176°
2026-04-29 05:21 43.64985 1.31318 8934 ft 169 kts 176°
2026-04-29 05:21 43.63813 1.31441 8935 ft 169 kts 175°
2026-04-29 05:22 43.62644 1.31568 8937 ft 169 kts 175°
2026-04-29 05:22 43.61472 1.31694 8931 ft 169 kts 176°
2026-04-29 05:22 43.60305 1.31819 8931 ft 168 kts 176°
2026-04-29 05:22 43.59134 1.31945 8943 ft 169 kts 176°
2026-04-29 05:23 43.57953 1.32073 8944 ft 170 kts 176°
2026-04-29 05:23 43.56771 1.32199 8945 ft 170 kts 176°
2026-04-29 05:23 43.55588 1.32327 8946 ft 171 kts 176°
2026-04-29 05:23 43.54404 1.32454 8946 ft 171 kts 176°
2026-04-29 05:24 43.53229 1.32580 8947 ft 171 kts 176°
2026-04-29 05:24 43.52043 1.32707 8948 ft 171 kts 176°
2026-04-29 05:24 43.50854 1.32835 8948 ft 171 kts 176°
2026-04-29 05:24 43.50065 1.32920 8946 ft 171 kts 176°
2026-04-29 05:25 43.48884 1.33045 8942 ft 171 kts 176°
2026-04-29 05:25 43.47700 1.33173 8942 ft 171 kts 176°
2026-04-29 05:25 43.46513 1.33301 8943 ft 170 kts 176°
2026-04-29 05:25 43.45335 1.33427 8943 ft 169 kts 176°
2026-04-29 05:26 43.43779 1.33593 8945 ft 169 kts 176°
2026-04-29 05:26 43.42985 1.33678 8946 ft 169 kts 176°
2026-04-29 05:26 43.41829 1.33801 8939 ft 170 kts 177°
2026-04-29 05:26 43.40652 1.33929 8937 ft 171 kts 177°
2026-04-29 05:27 43.39456 1.34056 8940 ft 172 kts 177°
2026-04-29 05:27 43.37063 1.34313 8941 ft 172 kts 178°
2026-04-29 05:27 43.35873 1.34438 8942 ft 171 kts 178°
2026-04-29 05:28 43.34685 1.34566 8940 ft 171 kts 178°
2026-04-29 05:28 43.33492 1.34691 8939 ft 172 kts 177°
2026-04-29 05:28 43.32312 1.34819 8939 ft 172 kts 177°
2026-04-29 05:28 43.31115 1.34947 8939 ft 173 kts 178°
2026-04-29 05:29 43.29916 1.35074 8941 ft 173 kts 178°
2026-04-29 05:29 43.28718 1.35201 8941 ft 173 kts 178°
2026-04-29 05:29 43.27523 1.35329 8940 ft 172 kts 178°
2026-04-29 05:29 43.26331 1.35457 8940 ft 171 kts 178°
2026-04-29 05:30 43.25145 1.35582 8939 ft 171 kts 178°
2026-04-29 05:30 43.23958 1.35707 8938 ft 171 kts 177°
2026-04-29 05:30 43.22767 1.35835 8938 ft 172 kts 177°
2026-04-29 05:30 43.21573 1.35962 8938 ft 172 kts 177°
2026-04-29 05:31 43.20394 1.36087 8938 ft 173 kts 176°
2026-04-29 05:31 43.19198 1.36214 8938 ft 173 kts 177°
2026-04-29 05:31 43.17992 1.36343 8938 ft 173 kts 176°
2026-04-29 05:31 43.16792 1.36469 8939 ft 173 kts 176°
2026-04-29 05:32 43.15588 1.36598 8937 ft 173 kts 176°
2026-04-29 05:32 43.14383 1.36725 8937 ft 174 kts 176°
2026-04-29 05:32 43.13175 1.36853 8937 ft 174 kts 176°
2026-04-29 05:32 43.11973 1.36981 8938 ft 174 kts 176°
2026-04-29 05:33 43.10766 1.37108 8960 ft 173 kts 176°
2026-04-29 05:33 43.09595 1.37233 9035 ft 169 kts 176°
2026-04-29 05:33 43.08428 1.37357 9109 ft 167 kts 176°
2026-04-29 05:33 43.07275 1.37478 9183 ft 165 kts 176°
2026-04-29 05:34 43.06131 1.37599 9255 ft 165 kts 176°
2026-04-29 05:34 43.04987 1.37720 9337 ft 164 kts 176°
2026-04-29 05:34 43.03852 1.37841 9413 ft 163 kts 177°
2026-04-29 05:34 43.02719 1.37960 9491 ft 163 kts 176°
2026-04-29 05:35 43.01589 1.38079 9575 ft 163 kts 176°
2026-04-29 05:35 43.00469 1.38198 9663 ft 159 kts 179°
2026-04-29 05:35 42.99378 1.38312 9744 ft 156 kts 179°
2026-04-29 05:35 42.98300 1.38424 9815 ft 155 kts 178°
2026-04-29 05:36 42.97232 1.38543 9887 ft 153 kts 180°
2026-04-29 05:36 42.96172 1.38653 9944 ft 153 kts 180°
2026-04-29 05:36 42.95103 1.38763 9944 ft 155 kts 180°
2026-04-29 05:36 42.94017 1.38873 9944 ft 159 kts 178°
2026-04-29 05:37 42.92902 1.38994 9948 ft 162 kts 179°
2026-04-29 05:37 42.91781 1.39113 9945 ft 160 kts 180°
2026-04-29 05:37 42.90683 1.39227 9951 ft 163 kts 178°
2026-04-29 05:37 42.89541 1.39349 9951 ft 165 kts 178°
2026-04-29 05:38 42.88394 1.39471 9954 ft 165 kts 179°
2026-04-29 05:38 42.87244 1.39589 9954 ft 166 kts 178°
2026-04-29 05:38 42.86090 1.39712 9958 ft 166 kts 179°
2026-04-29 05:38 42.84934 1.39832 9965 ft 167 kts 179°
2026-04-29 05:39 42.83784 1.39954 9960 ft 164 kts 179°
2026-04-29 05:39 42.82654 1.40073 9962 ft 162 kts 180°
2026-04-29 05:39 42.81526 1.40190 9962 ft 163 kts 180°
2026-04-29 05:39 42.80394 1.40307 9958 ft 163 kts 180°
2026-04-29 05:40 42.79268 1.40427 9959 ft 162 kts 180°
2026-04-29 05:40 42.78141 1.40545 9962 ft 164 kts 179°
2026-04-29 05:40 42.77013 1.40670 9970 ft 161 kts 177°
2026-04-29 05:40 42.75916 1.41049 9969 ft 163 kts 167°
2026-04-29 05:41 42.74843 1.41536 9970 ft 163 kts 166°
2026-04-29 05:41 42.73768 1.42023 9969 ft 163 kts 167°
2026-04-29 05:41 42.72691 1.42499 9967 ft 161 kts 167°
2026-04-29 05:41 42.71627 1.42985 9971 ft 163 kts 167°
2026-04-29 05:42 42.70550 1.43482 9964 ft 162 kts 166°
2026-04-29 05:42 42.69481 1.43965 9959 ft 160 kts 166°
2026-04-29 05:42 42.68441 1.44404 9983 ft 159 kts 167°
2026-04-29 05:42 42.67390 1.44839 9984 ft 158 kts 168°
2026-04-29 05:43 42.66332 1.45315 9988 ft 160 kts 166°
2026-04-29 05:43 42.65261 1.45797 9988 ft 164 kts 166°
2026-04-29 05:43 42.64172 1.46283 9993 ft 166 kts 166°
2026-04-29 05:43 42.63063 1.46773 9992 ft 168 kts 167°
2026-04-29 05:44 42.61943 1.47266 9996 ft 171 kts 166°
2026-04-29 05:44 42.60803 1.47757 9990 ft 172 kts 167°
2026-04-29 05:44 42.59674 1.48246 10001 ft 167 kts 166°
2026-04-29 05:44 42.58559 1.48699 10007 ft 171 kts 166°
2026-04-29 05:45 42.57410 1.49154 10005 ft 172 kts 167°
2026-04-29 05:45 42.56264 1.49607 10001 ft 171 kts 170°
2026-04-29 05:45 42.55102 1.49588 9998 ft 165 kts 195°
2026-04-29 05:45 42.54079 1.48943 9995 ft 161 kts 211°
2026-04-29 05:46 42.53160 1.48076 9994 ft 160 kts 214°
2026-04-29 05:46 42.52250 1.47193 9996 ft 162 kts 214°
2026-04-29 05:46 42.51362 1.46260 10000 ft 160 kts 218°
2026-04-29 05:46 42.50511 1.45295 10003 ft 159 kts 218°
2026-04-29 05:47 42.49658 1.44310 10007 ft 162 kts 219°
2026-04-29 05:47 42.48801 1.43318 10000 ft 162 kts 219°
2026-04-29 05:47 42.47939 1.42342 10007 ft 161 kts 218°
2026-04-29 05:47 42.47070 1.41358 10009 ft 164 kts 218°
2026-04-29 05:48 42.46194 1.40355 10007 ft 165 kts 218°
2026-04-29 05:48 42.45325 1.39351 10010 ft 164 kts 219°
2026-04-29 05:48 42.44454 1.38353 10008 ft 164 kts 219°
2026-04-29 05:48 42.43594 1.37369 10008 ft 163 kts 218°
2026-04-29 05:49 42.42731 1.36397 10015 ft 161 kts 216°
2026-04-29 05:49 42.41836 1.35465 10015 ft 163 kts 216°
2026-04-29 05:49 42.40857 1.34713 10012 ft 163 kts 195°
2026-04-29 05:49 42.39765 1.34318 10010 ft 162 kts 199°
2026-04-29 05:50 42.38767 1.33621 10011 ft 163 kts 213°
2026-04-29 05:50 42.37873 1.32680 10011 ft 163 kts 218°
2026-04-29 05:50 42.37000 1.31706 10008 ft 162 kts 218°
2026-04-29 05:50 42.36145 1.30747 10007 ft 162 kts 218°
2026-04-29 05:51 42.35259 1.29758 10013 ft 164 kts 218°
2026-04-29 05:51 42.34396 1.28798 10011 ft 162 kts 218°
2026-04-29 05:51 42.33523 1.27824 10013 ft 162 kts 218°
2026-04-29 05:51 42.32649 1.26852 10013 ft 162 kts 218°
2026-04-29 05:52 42.31777 1.25880 10014 ft 163 kts 218°
2026-04-29 05:52 42.30907 1.24913 10010 ft 161 kts 218°
2026-04-29 05:52 42.30045 1.23955 10013 ft 161 kts 218°
2026-04-29 05:52 42.29177 1.22991 10013 ft 162 kts 218°
2026-04-29 05:53 42.28301 1.22018 10007 ft 163 kts 218°
2026-04-29 05:53 42.27425 1.21043 10007 ft 163 kts 218°
2026-04-29 05:53 42.26553 1.20076 10008 ft 162 kts 218°
2026-04-29 05:53 42.25683 1.19109 10013 ft 163 kts 218°
2026-04-29 05:54 42.24797 1.18135 10006 ft 165 kts 215°
2026-04-29 05:54 42.23725 1.17731 9896 ft 166 kts 175°
2026-04-29 05:54 42.22680 1.18351 9639 ft 165 kts 153°
2026-04-29 05:54 42.21656 1.18984 9371 ft 158 kts 161°
2026-04-29 05:55 42.20643 1.19466 9119 ft 157 kts 163°
2026-04-29 05:55 42.19608 1.19933 8856 ft 157 kts 163°
2026-04-29 05:55 42.18565 1.20400 8547 ft 159 kts 163°
2026-04-29 05:55 42.17517 1.20871 8296 ft 158 kts 163°
2026-04-29 05:56 42.16500 1.21331 8160 ft 153 kts 162°
2026-04-29 05:56 42.15475 1.21792 8046 ft 160 kts 163°
2026-04-29 05:56 42.14397 1.22273 7938 ft 165 kts 162°
2026-04-29 05:56 42.13440 1.23126 7855 ft 169 kts 134°
2026-04-29 05:57 42.12875 1.24516 7779 ft 173 kts 108°
2026-04-29 05:57 42.12852 1.26141 7698 ft 177 kts 80°
2026-04-29 05:57 42.13414 1.27616 7586 ft 182 kts 51°
2026-04-29 05:57 42.14450 1.28579 7466 ft 186 kts 26°
2026-04-29 05:58 42.15637 1.29291 7354 ft 187 kts 26°
2026-04-29 05:58 42.16827 1.30021 7240 ft 187 kts 26°
2026-04-29 05:58 42.18021 1.30761 7120 ft 190 kts 26°
2026-04-29 05:58 42.19210 1.31503 7024 ft 185 kts 26°
2026-04-29 05:59 42.20366 1.32218 6878 ft 180 kts 26°
2026-04-29 05:59 42.21497 1.32919 6728 ft 178 kts 27°
2026-04-29 05:59 42.22592 1.33602 6580 ft 168 kts 27°
2026-04-29 05:59 42.23617 1.34239 6404 ft 163 kts 26°
2026-04-29 06:00 42.24644 1.34878 6136 ft 161 kts 26°
2026-04-29 06:00 42.25668 1.35430 5867 ft 157 kts 16°
2026-04-29 06:00 42.26678 1.35748 5620 ft 140 kts 14°
2026-04-29 06:00 42.27597 1.36057 5249 ft 134 kts 23°
2026-04-29 06:01 42.28430 1.36602 4843 ft 131 kts 27°
2026-04-29 06:01 42.29246 1.37133 4446 ft 131 kts 26°
2026-04-29 06:01 42.30056 1.37720 4088 ft 133 kts 31°
2026-04-29 06:01 42.30797 1.38312 3765 ft 110 kts 32°
2026-04-29 06:02 42.31411 1.38806 3468 ft 101 kts 31°
2026-04-29 06:02 42.31992 1.39283 3248 ft 94 kts 35°
2026-04-29 06:02 42.32518 1.39763 3054 ft 89 kts 32°
2026-04-29 06:02 42.33044 1.40190 2888 ft 87 kts 33°
2026-04-29 06:03 42.33554 1.40611 2722 ft 84 kts 33°
2026-04-29 06:03 42.34010 1.40987 2683 ft 66 kts 30°
2026-04-29 06:03 42.34316 1.41229 2683 ft 30 kts 30°
2026-04-29 06:03 42.34448 1.41352 2683 ft 16 kts 41°
2026-04-29 06:04 42.34524 1.41482 2683 ft 16 kts 56°
2026-04-29 06:04 42.34585 1.41525 2683 ft 11 kts 312°
2026-04-29 06:04 42.34543 1.41420 2683 ft 18 kts 212°
2026-04-29 06:04 42.34419 1.41319 2683 ft 24 kts 211°
2026-04-29 06:05 42.34266 1.41196 2683 ft 28 kts 211°
2026-04-29 06:05 42.34098 1.41057 2683 ft 27 kts 211°
2026-04-29 06:05 42.33942 1.40932 2683 ft 21 kts 211°
2026-04-29 06:05 42.33824 1.40820 2683 ft 18 kts 231°
2026-04-29 06:06 42.33756 1.40693 2683 ft 10 kts 235°
2026-04-29 06:06 42.33728 1.40637 2683 ft 6 kts 238°
2026-04-29 06:06 42.33735 1.40575 2683 ft 3 kts 289°
2026-04-29 06:06 42.33736 1.40571 2683 ft 0 kts 288°
2026-04-29 06:07 42.33742 1.40554 2683 ft 6 kts 298°
2026-04-29 06:07 42.33763 1.40509 2683 ft 8 kts 304°
2026-04-29 06:08 42.33788 1.40454 2683 ft 7 kts 299°
2026-04-29 06:08 42.33815 1.40431 2683 ft 6 kts 51°
2026-04-29 06:08 42.33812 1.40462 2683 ft 5 kts 134°
2026-04-29 06:08 42.33795 1.40462 2683 ft 4 kts 145°
2026-04-29 06:09 42.33804 1.40479 2683 ft 1 kts 29°
2026-04-29 06:09 42.33805 1.40490 2683 ft 0 kts 93°
2026-04-29 06:09 42.33806 1.40479 2683 ft 12 kts 93°
2026-04-29 06:09 42.33805 1.40482 2683 ft 0 kts 116°
2026-04-29 06:10 42.33789 1.40499 2683 ft 2 kts 209°
2026-04-29 06:10 42.33794 1.40503 2683 ft 4 kts 208°
2026-04-29 06:10 42.33793 1.40501 2683 ft 0 kts 208°
2026-04-29 06:10 42.33792 1.40500 2683 ft 0 kts 207°